owner,sensor,date,latitude,longitude,air_pressure(mBar),qcFlag 
LUMCON,ioos:station:LUMCON:101:1,2011-06-01T00:00:00Z,29.2533,-90.6633,1020.2,11111222 
LUMCON,ioos:station:LUMCON:101:1,2011-06-01T01:00:00Z,29.2533,-90.6633,1020.4,11111222 
LUMCON,ioos:station:LUMCON:101:1,2011-06-01T02:00:00Z,29.2533,-90.6633,1020.4,11111222 
LUMCON,ioos:station:LUMCON:101:1,2011-06-01T03:00:00Z,29.2533,-90.6633,1020.8,11111222 
LUMCON,ioos:station:LUMCON:101:1,2011-06-01T04:00:00Z,29.2533,-90.6633,1021.1,11111222 
LUMCON,ioos:station:LUMCON:101:1,2011-06-01T05:00:00Z,29.2533,-90.6633,1020.9,11111222 
LUMCON,ioos:station:LUMCON:101:1,2011-06-01T06:00:00Z,29.2533,-90.6633,1020.6,11111222 
LUMCON,ioos:station:LUMCON:101:1,2011-06-01T07:00:00Z,29.2533,-90.6633,1020.1,11111222 
LUMCON,ioos:station:LUMCON:101:1,2011-06-01T08:00:00Z,29.2533,-90.6633,1020.1,11111222 
LUMCON,ioos:station:LUMCON:101:1,2011-06-01T09:00:00Z,29.2533,-90.6633,1020.1,11111222 
LUMCON,ioos:station:LUMCON:101:1,2011-06-01T10:00:00Z,29.2533,-90.6633,1020.1,11111222 
LUMCON,ioos:station:LUMCON:101:1,2011-06-01T11:00:00Z,29.2533,-90.6633,1020.5,11111222 
LUMCON,ioos:station:LUMCON:101:1,2011-06-01T12:00:00Z,29.2533,-90.6633,1021.1,11111222 
LUMCON,ioos:station:LUMCON:101:1,2011-06-01T13:00:00Z,29.2533,-90.6633,1021.7,11111222 
LUMCON,ioos:station:LUMCON:101:1,2011-06-01T14:00:00Z,29.2533,-90.6633,1022.2,11111222 
LUMCON,ioos:station:LUMCON:101:1,2011-06-01T15:00:00Z,29.2533,-90.6633,1021.6,11111222 
LUMCON,ioos:station:LUMCON:101:1,2011-06-01T16:00:00Z,29.2533,-90.6633,1021.0,11111222 
LUMCON,ioos:station:LUMCON:101:1,2011-06-01T17:00:00Z,29.2533,-90.6633,1020.6,11111222 
LUMCON,ioos:station:LUMCON:101:1,2011-06-01T18:00:00Z,29.2533,-90.6633,1020.0,11111222 
LUMCON,ioos:station:LUMCON:101:1,2011-06-01T19:00:00Z,29.2533,-90.6633,1019.5,11111222 
LUMCON,ioos:station:LUMCON:101:1,2011-06-01T20:00:00Z,29.2533,-90.6633,1018.7,11111222 
LUMCON,ioos:station:LUMCON:101:1,2011-06-01T21:00:00Z,29.2533,-90.6633,1017.8,11111222 
LUMCON,ioos:station:LUMCON:101:1,2011-06-01T22:00:00Z,29.2533,-90.6633,1017.3,11111222 
LUMCON,ioos:station:LUMCON:101:1,2011-06-01T23:00:00Z,29.2533,-90.6633,1016.6,11111222 
LUMCON,ioos:station:LUMCON:101:1,2011-06-02T00:00:00Z,29.2533,-90.6633,1016.6,11111222 
LUMCON,ioos:station:LUMCON:101:1,2011-06-02T01:00:00Z,29.2533,-90.6633,1016.7,11111222 
LUMCON,ioos:station:LUMCON:101:1,2011-06-02T02:00:00Z,29.2533,-90.6633,1016.7,11111222 
LUMCON,ioos:station:LUMCON:101:1,2011-06-02T03:00:00Z,29.2533,-90.6633,1017.0,11111222 
LUMCON,ioos:station:LUMCON:101:1,2011-06-02T04:00:00Z,29.2533,-90.6633,1017.3,11111222 
LUMCON,ioos:station:LUMCON:101:1,2011-06-02T05:00:00Z,29.2533,-90.6633,1017.0,11111222 
LUMCON,ioos:station:LUMCON:101:1,2011-06-02T06:00:00Z,29.2533,-90.6633,1016.1,11111222 
LUMCON,ioos:station:LUMCON:101:1,2011-06-02T07:00:00Z,29.2533,-90.6633,1015.6,11111222 
LUMCON,ioos:station:LUMCON:101:1,2011-06-02T08:00:00Z,29.2533,-90.6633,1015.1,11111222 
LUMCON,ioos:station:LUMCON:101:1,2011-06-02T09:00:00Z,29.2533,-90.6633,1014.8,11111222 
LUMCON,ioos:station:LUMCON:101:1,2011-06-02T10:00:00Z,29.2533,-90.6633,1015.4,11111222 
LUMCON,ioos:station:LUMCON:101:1,2011-06-02T11:00:00Z,29.2533,-90.6633,1015.2,11111222 
LUMCON,ioos:station:LUMCON:101:1,2011-06-02T12:00:00Z,29.2533,-90.6633,1015.7,11111222 
LUMCON,ioos:station:LUMCON:101:1,2011-06-02T13:00:00Z,29.2533,-90.6633,1016.1,11111222 
LUMCON,ioos:station:LUMCON:101:1,2011-06-02T14:00:00Z,29.2533,-90.6633,1015.8,11111222 
LUMCON,ioos:station:LUMCON:101:1,2011-06-02T15:00:00Z,29.2533,-90.6633,1015.7,11111222 
LUMCON,ioos:station:LUMCON:101:1,2011-06-02T16:00:00Z,29.2533,-90.6633,1015.6,11111222 
LUMCON,ioos:station:LUMCON:101:1,2011-06-02T17:00:00Z,29.2533,-90.6633,1015.7,11111222 
LUMCON,ioos:station:LUMCON:101:1,2011-06-02T18:00:00Z,29.2533,-90.6633,1015.1,11111222 
LUMCON,ioos:station:LUMCON:101:1,2011-06-02T19:00:00Z,29.2533,-90.6633,1014.7,11111222 
LUMCON,ioos:station:LUMCON:101:1,2011-06-02T20:00:00Z,29.2533,-90.6633,1014.7,11111222 
LUMCON,ioos:station:LUMCON:101:1,2011-06-02T21:00:00Z,29.2533,-90.6633,1014.7,11111222 
LUMCON,ioos:station:LUMCON:101:1,2011-06-02T22:00:00Z,29.2533,-90.6633,1014.7,11111222 
LUMCON,ioos:station:LUMCON:101:1,2011-06-02T23:00:00Z,29.2533,-90.6633,1014.7,11111222 
LUMCON,ioos:station:LUMCON:101:1,2011-06-03T00:00:00Z,29.2533,-90.6633,1014.7,11111222 
LUMCON,ioos:station:LUMCON:101:1,2011-06-03T01:00:00Z,29.2533,-90.6633,1014.8,11111222 
LUMCON,ioos:station:LUMCON:101:1,2011-06-03T02:00:00Z,29.2533,-90.6633,1015.1,11111222 
LUMCON,ioos:station:LUMCON:101:1,2011-06-03T03:00:00Z,29.2533,-90.6633,1016.0,11111222 
LUMCON,ioos:station:LUMCON:101:1,2011-06-03T04:00:00Z,29.2533,-90.6633,1016.5,11111222 
LUMCON,ioos:station:LUMCON:101:1,2011-06-03T05:00:00Z,29.2533,-90.6633,1016.2,11111222 
LUMCON,ioos:station:LUMCON:101:1,2011-06-03T06:00:00Z,29.2533,-90.6633,1016.1,11111222 
LUMCON,ioos:station:LUMCON:101:1,2011-06-03T07:00:00Z,29.2533,-90.6633,1015.7,11111222 
LUMCON,ioos:station:LUMCON:101:1,2011-06-03T08:00:00Z,29.2533,-90.6633,1015.7,11111222 
LUMCON,ioos:station:LUMCON:101:1,2011-06-03T09:00:00Z,29.2533,-90.6633,1015.5,11111222 
LUMCON,ioos:station:LUMCON:101:1,2011-06-03T10:00:00Z,29.2533,-90.6633,1015.3,11111222 
LUMCON,ioos:station:LUMCON:101:1,2011-06-03T11:00:00Z,29.2533,-90.6633,1015.9,11111222 
LUMCON,ioos:station:LUMCON:101:1,2011-06-03T12:00:00Z,29.2533,-90.6633,1016.6,11111222 
LUMCON,ioos:station:LUMCON:101:1,2011-06-03T13:00:00Z,29.2533,-90.6633,1017.4,11111222 
LUMCON,ioos:station:LUMCON:101:1,2011-06-03T14:00:00Z,29.2533,-90.6633,1018.2,11111222 
LUMCON,ioos:station:LUMCON:101:1,2011-06-03T15:00:00Z,29.2533,-90.6633,1025.2,11111222 
LUMCON,ioos:station:LUMCON:101:1,2011-06-03T16:00:00Z,29.2533,-90.6633,1017.8,11111222 
LUMCON,ioos:station:LUMCON:101:1,2011-06-03T17:00:00Z,29.2533,-90.6633,1017.7,11111222 
LUMCON,ioos:station:LUMCON:101:1,2011-06-03T18:00:00Z,29.2533,-90.6633,1017.2,11111222 
LUMCON,ioos:station:LUMCON:101:1,2011-06-03T19:00:00Z,29.2533,-90.6633,1016.8,11111222 
LUMCON,ioos:station:LUMCON:101:1,2011-06-03T20:00:00Z,29.2533,-90.6633,1016.4,1111122 
LUMCON,ioos:station:LUMCON:101:1,2011-06-03T21:00:00Z,29.2533,-90.6633,1016.4,1111122 
LUMCON,ioos:station:LUMCON:101:1,2011-06-03T22:00:00Z,29.2533,-90.6633,1016.2,1111122 
LUMCON,ioos:station:LUMCON:101:1,2011-06-03T23:00:00Z,29.2533,-90.6633,1016.2,1111122 
LUMCON,ioos:station:LUMCON:101:1,2011-06-04T00:00:00Z,29.2533,-90.6633,1016.3,1111122 
LUMCON,ioos:station:LUMCON:101:1,2011-06-04T01:00:00Z,29.2533,-90.6633,1016.8,1111122 
LUMCON,ioos:station:LUMCON:101:1,2011-06-04T02:00:00Z,29.2533,-90.6633,1016.9,1111122 
LUMCON,ioos:station:LUMCON:101:1,2011-06-04T03:00:00Z,29.2533,-90.6633,1017.1,1111122 
LUMCON,ioos:station:LUMCON:101:1,2011-06-04T04:00:00Z,29.2533,-90.6633,1017.6,1111122 
LUMCON,ioos:station:LUMCON:101:1,2011-06-04T05:00:00Z,29.2533,-90.6633,1017.3,1111122 
LUMCON,ioos:station:LUMCON:101:1,2011-06-04T06:00:00Z,29.2533,-90.6633,1017.2,1111122 
LUMCON,ioos:station:LUMCON:101:1,2011-06-04T07:00:00Z,29.2533,-90.6633,1017.2,1111122 
LUMCON,ioos:station:LUMCON:101:1,2011-06-04T08:00:00Z,29.2533,-90.6633,1017.2,1111122 
LUMCON,ioos:station:LUMCON:101:1,2011-06-04T09:00:00Z,29.2533,-90.6633,1017.9,1111122 
LUMCON,ioos:station:LUMCON:101:1,2011-06-04T10:00:00Z,29.2533,-90.6633,1017.5,1111122 
LUMCON,ioos:station:LUMCON:101:1,2011-06-04T11:00:00Z,29.2533,-90.6633,1017.9,1111122 
LUMCON,ioos:station:LUMCON:101:1,2011-06-04T12:00:00Z,29.2533,-90.6633,1018.4,1111122 
LUMCON,ioos:station:LUMCON:101:1,2011-06-04T13:00:00Z,29.2533,-90.6633,1018.9,1111122 
LUMCON,ioos:station:LUMCON:101:1,2011-06-04T14:00:00Z,29.2533,-90.6633,1019.6,1111122 
LUMCON,ioos:station:LUMCON:101:1,2011-06-04T15:00:00Z,29.2533,-90.6633,1019.6,1111122 
LUMCON,ioos:station:LUMCON:101:1,2011-06-04T16:00:00Z,29.2533,-90.6633,1019.4,1111122 
LUMCON,ioos:station:LUMCON:101:1,2011-06-04T17:00:00Z,29.2533,-90.6633,1019.0,1111122 
LUMCON,ioos:station:LUMCON:101:1,2011-06-04T18:00:00Z,29.2533,-90.6633,1018.6,1111122 
LUMCON,ioos:station:LUMCON:101:1,2011-06-04T19:00:00Z,29.2533,-90.6633,1018.1,1111122 
LUMCON,ioos:station:LUMCON:101:1,2011-06-04T20:00:00Z,29.2533,-90.6633,1017.7,1111122 
LUMCON,ioos:station:LUMCON:101:1,2011-06-04T21:00:00Z,29.2533,-90.6633,1017.2,1111122 
LUMCON,ioos:station:LUMCON:101:1,2011-06-04T22:00:00Z,29.2533,-90.6633,1016.5,1111122 
LUMCON,ioos:station:LUMCON:101:1,2011-06-04T23:00:00Z,29.2533,-90.6633,1016.5,1111122 
LUMCON,ioos:station:LUMCON:101:1,2011-06-05T00:00:00Z,29.2533,-90.6633,1016.2,1111122 
LUMCON,ioos:station:LUMCON:101:1,2011-06-05T01:00:00Z,29.2533,-90.6633,1016.5,1111122 
LUMCON,ioos:station:LUMCON:101:1,2011-06-05T02:00:00Z,29.2533,-90.6633,1016.9,1111122 
LUMCON,ioos:station:LUMCON:101:1,2011-06-05T03:00:00Z,29.2533,-90.6633,1017.5,1111122 
LUMCON,ioos:station:LUMCON:101:1,2011-06-05T04:00:00Z,29.2533,-90.6633,1017.5,1111122 
LUMCON,ioos:station:LUMCON:101:1,2011-06-05T05:00:00Z,29.2533,-90.6633,1017.2,1111122 
LUMCON,ioos:station:LUMCON:101:1,2011-06-05T06:00:00Z,29.2533,-90.6633,1016.6,1111122 
LUMCON,ioos:station:LUMCON:101:1,2011-06-05T07:00:00Z,29.2533,-90.6633,1015.9,1111122 
LUMCON,ioos:station:LUMCON:101:1,2011-06-05T08:00:00Z,29.2533,-90.6633,1015.6,1111122 
LUMCON,ioos:station:LUMCON:101:1,2011-06-05T09:00:00Z,29.2533,-90.6633,1015.7,1111122 
LUMCON,ioos:station:LUMCON:101:1,2011-06-05T10:00:00Z,29.2533,-90.6633,1015.9,1111122 
LUMCON,ioos:station:LUMCON:101:1,2011-06-05T11:00:00Z,29.2533,-90.6633,1016.2,1111122 
LUMCON,ioos:station:LUMCON:101:1,2011-06-05T12:00:00Z,29.2533,-90.6633,1016.3,1111122 
LUMCON,ioos:station:LUMCON:101:1,2011-06-05T13:00:00Z,29.2533,-90.6633,1016.5,1111122 
LUMCON,ioos:station:LUMCON:101:1,2011-06-05T15:00:00Z,29.2533,-90.6633,1016.6,1111122 
LUMCON,ioos:station:LUMCON:101:1,2011-06-05T16:00:00Z,29.2533,-90.6633,1016.3,1111122 
LUMCON,ioos:station:LUMCON:101:1,2011-06-05T17:00:00Z,29.2533,-90.6633,1016.9,1111122 
LUMCON,ioos:station:LUMCON:101:1,2011-06-05T18:00:00Z,29.2533,-90.6633,1016.2,1111122 
LUMCON,ioos:station:LUMCON:101:1,2011-06-05T19:00:00Z,29.2533,-90.6633,1015.7,1111122 
LUMCON,ioos:station:LUMCON:101:1,2011-06-05T20:00:00Z,29.2533,-90.6633,1015.0,1111122 
LUMCON,ioos:station:LUMCON:101:1,2011-06-05T21:00:00Z,29.2533,-90.6633,1014.8,1111122 
LUMCON,ioos:station:LUMCON:101:1,2011-06-06T14:00:00Z,29.2533,-90.6633,1014.2,1111122 
LUMCON,ioos:station:LUMCON:101:1,2011-06-06T15:00:00Z,29.2533,-90.6633,1014.4,1111122 
LUMCON,ioos:station:LUMCON:101:1,2011-06-06T16:00:00Z,29.2533,-90.6633,1014.5,1111122 
LUMCON,ioos:station:LUMCON:101:1,2011-06-06T17:00:00Z,29.2533,-90.6633,1014.4,1111122 
LUMCON,ioos:station:LUMCON:101:1,2011-06-06T18:00:00Z,29.2533,-90.6633,1014.0,1111122 
LUMCON,ioos:station:LUMCON:101:1,2011-06-06T19:00:00Z,29.2533,-90.6633,1013.3,1111122 
LUMCON,ioos:station:LUMCON:101:1,2011-06-06T20:00:00Z,29.2533,-90.6633,1012.4,1111122 
LUMCON,ioos:station:LUMCON:101:1,2011-06-06T21:00:00Z,29.2533,-90.6633,1012.1,1111122 
LUMCON,ioos:station:LUMCON:101:1,2011-06-06T22:00:00Z,29.2533,-90.6633,1012.6,1111122 
LUMCON,ioos:station:LUMCON:101:1,2011-06-06T23:00:00Z,29.2533,-90.6633,1012.5,1111122 
LUMCON,ioos:station:LUMCON:101:1,2011-06-07T00:00:00Z,29.2533,-90.6633,1012.5,1111122 
LUMCON,ioos:station:LUMCON:101:1,2011-06-07T01:00:00Z,29.2533,-90.6633,1012.6,1111122 
LUMCON,ioos:station:LUMCON:101:1,2011-06-07T02:00:00Z,29.2533,-90.6633,1011.9,1111122 
LUMCON,ioos:station:LUMCON:101:1,2011-06-07T03:00:00Z,29.2533,-90.6633,1012.6,1111122 
LUMCON,ioos:station:LUMCON:101:1,2011-06-07T04:00:00Z,29.2533,-90.6633,1012.9,1111122 
LUMCON,ioos:station:LUMCON:101:1,2011-06-07T05:00:00Z,29.2533,-90.6633,1012.8,1111122 
LUMCON,ioos:station:LUMCON:101:1,2011-06-07T06:00:00Z,29.2533,-90.6633,1012.3,1111122 
LUMCON,ioos:station:LUMCON:101:1,2011-06-07T07:00:00Z,29.2533,-90.6633,1011.9,1111122 
LUMCON,ioos:station:LUMCON:101:1,2011-06-07T08:00:00Z,29.2533,-90.6633,1011.6,11111222 
LUMCON,ioos:station:LUMCON:101:1,2011-06-07T09:00:00Z,29.2533,-90.6633,1011.7,11111222 
LUMCON,ioos:station:LUMCON:101:1,2011-06-07T10:00:00Z,29.2533,-90.6633,1012.3,1111122 
LUMCON,ioos:station:LUMCON:101:1,2011-06-07T11:00:00Z,29.2533,-90.6633,1012.7,1111122 
LUMCON,ioos:station:LUMCON:101:1,2011-06-07T12:00:00Z,29.2533,-90.6633,1012.5,1111122 
LUMCON,ioos:station:LUMCON:101:1,2011-06-07T13:00:00Z,29.2533,-90.6633,1013.6,1111122 
LUMCON,ioos:station:LUMCON:101:1,2011-06-07T14:00:00Z,29.2533,-90.6633,1013.9,1111122 
LUMCON,ioos:station:LUMCON:101:1,2011-06-07T16:00:00Z,29.2533,-90.6633,1014.0,1111122 
LUMCON,ioos:station:LUMCON:101:1,2011-06-07T17:00:00Z,29.2533,-90.6633,1014.1,1111122 
LUMCON,ioos:station:LUMCON:101:1,2011-06-07T18:00:00Z,29.2533,-90.6633,1013.9,1111122 
LUMCON,ioos:station:LUMCON:101:1,2011-06-07T19:00:00Z,29.2533,-90.6633,1013.6,1111122 
LUMCON,ioos:station:LUMCON:101:1,2011-06-07T20:00:00Z,29.2533,-90.6633,1012.8,1111122 
LUMCON,ioos:station:LUMCON:101:1,2011-06-07T21:00:00Z,29.2533,-90.6633,1012.4,1111122 
LUMCON,ioos:station:LUMCON:101:1,2011-06-07T22:00:00Z,29.2533,-90.6633,1011.7,1111122 
LUMCON,ioos:station:LUMCON:101:1,2011-06-07T23:00:00Z,29.2533,-90.6633,1011.4,1111122 
LUMCON,ioos:station:LUMCON:101:1,2011-06-08T00:00:00Z,29.2533,-90.6633,1012.1,1111122 
LUMCON,ioos:station:LUMCON:101:1,2011-06-08T01:00:00Z,29.2533,-90.6633,1012.8,1111122 
LUMCON,ioos:station:LUMCON:101:1,2011-06-08T02:00:00Z,29.2533,-90.6633,1013.4,1111122 
LUMCON,ioos:station:LUMCON:101:1,2011-06-08T03:00:00Z,29.2533,-90.6633,1014.2,1111122 
LUMCON,ioos:station:LUMCON:101:1,2011-06-08T04:00:00Z,29.2533,-90.6633,1015.3,1111122 
LUMCON,ioos:station:LUMCON:101:1,2011-06-08T05:00:00Z,29.2533,-90.6633,1015.0,1111122 
LUMCON,ioos:station:LUMCON:101:1,2011-06-08T06:00:00Z,29.2533,-90.6633,1014.3,1111122 
LUMCON,ioos:station:LUMCON:101:1,2011-06-08T07:00:00Z,29.2533,-90.6633,1013.3,1111122 
LUMCON,ioos:station:LUMCON:101:1,2011-06-08T08:00:00Z,29.2533,-90.6633,1012.8,1111122 
LUMCON,ioos:station:LUMCON:101:1,2011-06-08T09:00:00Z,29.2533,-90.6633,1012.7,1111122 
LUMCON,ioos:station:LUMCON:101:1,2011-06-08T10:00:00Z,29.2533,-90.6633,1012.9,1111122 
LUMCON,ioos:station:LUMCON:101:1,2011-06-08T11:00:00Z,29.2533,-90.6633,1013.1,1111122 
LUMCON,ioos:station:LUMCON:101:1,2011-06-08T12:00:00Z,29.2533,-90.6633,1013.8,1111122 
LUMCON,ioos:station:LUMCON:101:1,2011-06-08T13:00:00Z,29.2533,-90.6633,1014.5,1111122 
LUMCON,ioos:station:LUMCON:101:1,2011-06-08T14:00:00Z,29.2533,-90.6633,1015.1,1111122 
LUMCON,ioos:station:LUMCON:101:1,2011-06-08T15:00:00Z,29.2533,-90.6633,1015.2,1111122 
LUMCON,ioos:station:LUMCON:101:1,2011-06-08T16:00:00Z,29.2533,-90.6633,1015.4,1111122 
LUMCON,ioos:station:LUMCON:101:1,2011-06-08T17:00:00Z,29.2533,-90.6633,1015.5,1111122 
LUMCON,ioos:station:LUMCON:101:1,2011-06-08T18:00:00Z,29.2533,-90.6633,1015.1,1111122 
LUMCON,ioos:station:LUMCON:101:1,2011-06-08T19:00:00Z,29.2533,-90.6633,1014.3,1111122 
LUMCON,ioos:station:LUMCON:101:1,2011-06-08T20:00:00Z,29.2533,-90.6633,1013.9,1111122 
LUMCON,ioos:station:LUMCON:101:1,2011-06-08T23:00:00Z,29.2533,-90.6633,1013.9,1111122 
LUMCON,ioos:station:LUMCON:101:1,2011-06-09T00:00:00Z,29.2533,-90.6633,1014.0,1111122 
LUMCON,ioos:station:LUMCON:101:1,2011-06-09T01:00:00Z,29.2533,-90.6633,1014.5,1111122 
LUMCON,ioos:station:LUMCON:101:1,2011-06-09T02:00:00Z,29.2533,-90.6633,1014.5,1111122 
LUMCON,ioos:station:LUMCON:101:1,2011-06-09T03:00:00Z,29.2533,-90.6633,1015.1,1111122 
LUMCON,ioos:station:LUMCON:101:1,2011-06-09T04:00:00Z,29.2533,-90.6633,1015.2,1111122 
LUMCON,ioos:station:LUMCON:101:1,2011-06-09T05:00:00Z,29.2533,-90.6633,1014.8,1111122 
LUMCON,ioos:station:LUMCON:101:1,2011-06-09T06:00:00Z,29.2533,-90.6633,1014.1,1111122 
LUMCON,ioos:station:LUMCON:101:1,2011-06-09T07:00:00Z,29.2533,-90.6633,1013.5,1111122 
LUMCON,ioos:station:LUMCON:101:1,2011-06-09T08:00:00Z,29.2533,-90.6633,1013.1,1111122 
LUMCON,ioos:station:LUMCON:101:1,2011-06-09T09:00:00Z,29.2533,-90.6633,1013.3,1111122 
LUMCON,ioos:station:LUMCON:101:1,2011-06-09T10:00:00Z,29.2533,-90.6633,1013.7,1111122 
LUMCON,ioos:station:LUMCON:101:1,2011-06-09T11:00:00Z,29.2533,-90.6633,1014.2,1111122 
LUMCON,ioos:station:LUMCON:101:1,2011-06-09T12:00:00Z,29.2533,-90.6633,1014.8,1111122 
LUMCON,ioos:station:LUMCON:101:1,2011-06-09T13:00:00Z,29.2533,-90.6633,1015.1,1111122 
LUMCON,ioos:station:LUMCON:101:1,2011-06-09T14:00:00Z,29.2533,-90.6633,1015.6,1111122 
LUMCON,ioos:station:LUMCON:101:1,2011-06-09T15:00:00Z,29.2533,-90.6633,1015.6,1111122 
LUMCON,ioos:station:LUMCON:101:1,2011-06-09T16:00:00Z,29.2533,-90.6633,1015.6,1111122 
LUMCON,ioos:station:LUMCON:101:1,2011-06-09T17:00:00Z,29.2533,-90.6633,1015.6,1111122 
LUMCON,ioos:station:LUMCON:101:1,2011-06-09T18:00:00Z,29.2533,-90.6633,1015.4,1111122 
LUMCON,ioos:station:LUMCON:101:1,2011-06-09T19:00:00Z,29.2533,-90.6633,1014.7,1111122 
LUMCON,ioos:station:LUMCON:101:1,2011-06-09T20:00:00Z,29.2533,-90.6633,1014.2,1111122 
LUMCON,ioos:station:LUMCON:101:1,2011-06-09T21:00:00Z,29.2533,-90.6633,1013.6,1111122 
LUMCON,ioos:station:LUMCON:101:1,2011-06-09T22:00:00Z,29.2533,-90.6633,1013.5,1111122 
LUMCON,ioos:station:LUMCON:101:1,2011-06-09T23:00:00Z,29.2533,-90.6633,1013.5,1111122 
LUMCON,ioos:station:LUMCON:101:1,2011-06-10T00:00:00Z,29.2533,-90.6633,1013.3,1111122 
LUMCON,ioos:station:LUMCON:101:1,2011-06-10T01:00:00Z,29.2533,-90.6633,1013.3,1111122 
LUMCON,ioos:station:LUMCON:101:1,2011-06-10T02:00:00Z,29.2533,-90.6633,1013.3,1111122 
LUMCON,ioos:station:LUMCON:101:1,2011-06-10T03:00:00Z,29.2533,-90.6633,1013.7,1111122 
LUMCON,ioos:station:LUMCON:101:1,2011-06-10T04:00:00Z,29.2533,-90.6633,1014.2,1111122 
LUMCON,ioos:station:LUMCON:101:1,2011-06-10T05:00:00Z,29.2533,-90.6633,1014.0,1111122 
LUMCON,ioos:station:LUMCON:101:1,2011-06-10T06:00:00Z,29.2533,-90.6633,1013.5,1111122 
LUMCON,ioos:station:LUMCON:101:1,2011-06-10T07:00:00Z,29.2533,-90.6633,1012.9,1111122 
LUMCON,ioos:station:LUMCON:101:1,2011-06-10T08:00:00Z,29.2533,-90.6633,1012.7,1111122 
LUMCON,ioos:station:LUMCON:101:1,2011-06-10T09:00:00Z,29.2533,-90.6633,1012.8,1111122 
LUMCON,ioos:station:LUMCON:101:1,2011-06-10T10:00:00Z,29.2533,-90.6633,1012.9,1111122 
LUMCON,ioos:station:LUMCON:101:1,2011-06-10T11:00:00Z,29.2533,-90.6633,1013.2,1111122 
LUMCON,ioos:station:LUMCON:101:1,2011-06-10T12:00:00Z,29.2533,-90.6633,1013.8,1111122 
LUMCON,ioos:station:LUMCON:101:1,2011-06-10T13:00:00Z,29.2533,-90.6633,1014.4,1111122 
LUMCON,ioos:station:LUMCON:101:1,2011-06-10T14:00:00Z,29.2533,-90.6633,1014.6,1111122 
LUMCON,ioos:station:LUMCON:101:1,2011-06-10T15:00:00Z,29.2533,-90.6633,1014.7,1111122 
LUMCON,ioos:station:LUMCON:101:1,2011-06-10T16:00:00Z,29.2533,-90.6633,1014.6,1111122 
LUMCON,ioos:station:LUMCON:101:1,2011-06-10T17:00:00Z,29.2533,-90.6633,1014.5,1111122 
LUMCON,ioos:station:LUMCON:101:1,2011-06-10T18:00:00Z,29.2533,-90.6633,1014.3,1111122 
LUMCON,ioos:station:LUMCON:101:1,2011-06-10T19:00:00Z,29.2533,-90.6633,1013.9,1111122 
LUMCON,ioos:station:LUMCON:101:1,2011-06-10T20:00:00Z,29.2533,-90.6633,1013.6,1111122 
LUMCON,ioos:station:LUMCON:101:1,2011-06-10T21:00:00Z,29.2533,-90.6633,1013.0,1111122 
LUMCON,ioos:station:LUMCON:101:1,2011-06-10T22:00:00Z,29.2533,-90.6633,1012.5,1111122 
LUMCON,ioos:station:LUMCON:101:1,2011-06-10T23:00:00Z,29.2533,-90.6633,1012.2,1111122 
LUMCON,ioos:station:LUMCON:101:1,2011-06-11T00:00:00Z,29.2533,-90.6633,1012.1,11111222 
LUMCON,ioos:station:LUMCON:101:1,2011-06-11T01:00:00Z,29.2533,-90.6633,1012.4,1111122 
LUMCON,ioos:station:LUMCON:101:1,2011-06-11T02:00:00Z,29.2533,-90.6633,1012.6,1111122 
LUMCON,ioos:station:LUMCON:101:1,2011-06-11T03:00:00Z,29.2533,-90.6633,1012.8,1111122 
LUMCON,ioos:station:LUMCON:101:1,2011-06-11T04:00:00Z,29.2533,-90.6633,1013.0,1111122 
LUMCON,ioos:station:LUMCON:101:1,2011-06-11T05:00:00Z,29.2533,-90.6633,1012.7,1111122 
LUMCON,ioos:station:LUMCON:101:1,2011-06-11T06:00:00Z,29.2533,-90.6633,1012.2,1111122 
LUMCON,ioos:station:LUMCON:101:1,2011-06-11T07:00:00Z,29.2533,-90.6633,1011.3,1111122 
LUMCON,ioos:station:LUMCON:101:1,2011-06-11T08:00:00Z,29.2533,-90.6633,1011.3,1111122 
LUMCON,ioos:station:LUMCON:101:1,2011-06-11T09:00:00Z,29.2533,-90.6633,1011.5,11111222 
LUMCON,ioos:station:LUMCON:101:1,2011-06-11T10:00:00Z,29.2533,-90.6633,1011.9,11111222 
LUMCON,ioos:station:LUMCON:101:1,2011-06-11T11:00:00Z,29.2533,-90.6633,1012.8,11111222 
LUMCON,ioos:station:LUMCON:101:1,2011-06-11T12:00:00Z,29.2533,-90.6633,1013.8,11111222 
LUMCON,ioos:station:LUMCON:101:1,2011-06-11T13:00:00Z,29.2533,-90.6633,1014.4,11111222 
LUMCON,ioos:station:LUMCON:101:1,2011-06-11T14:00:00Z,29.2533,-90.6633,1014.5,11111222 
LUMCON,ioos:station:LUMCON:101:1,2011-06-11T15:00:00Z,29.2533,-90.6633,1014.3,11111222 
LUMCON,ioos:station:LUMCON:101:1,2011-06-11T16:00:00Z,29.2533,-90.6633,1013.9,11111222 
LUMCON,ioos:station:LUMCON:101:1,2011-06-11T17:00:00Z,29.2533,-90.6633,1013.9,11111222 
LUMCON,ioos:station:LUMCON:101:1,2011-06-11T18:00:00Z,29.2533,-90.6633,1013.5,11111222 
LUMCON,ioos:station:LUMCON:101:1,2011-06-11T19:00:00Z,29.2533,-90.6633,1013.1,11111222 
LUMCON,ioos:station:LUMCON:101:1,2011-06-11T20:00:00Z,29.2533,-90.6633,1012.8,11111222 
LUMCON,ioos:station:LUMCON:101:1,2011-06-11T21:00:00Z,29.2533,-90.6633,1012.3,11111222 
LUMCON,ioos:station:LUMCON:101:1,2011-06-11T22:00:00Z,29.2533,-90.6633,1012.0,11111222 
LUMCON,ioos:station:LUMCON:101:1,2011-06-11T23:00:00Z,29.2533,-90.6633,1011.7,11111222 
LUMCON,ioos:station:LUMCON:101:1,2011-06-12T00:00:00Z,29.2533,-90.6633,1012.2,11111222 
LUMCON,ioos:station:LUMCON:101:1,2011-06-12T01:00:00Z,29.2533,-90.6633,1012.3,11111222 
LUMCON,ioos:station:LUMCON:101:1,2011-06-12T02:00:00Z,29.2533,-90.6633,1012.4,11111222 
LUMCON,ioos:station:LUMCON:101:1,2011-06-12T03:00:00Z,29.2533,-90.6633,1012.7,11111222 
LUMCON,ioos:station:LUMCON:101:1,2011-06-12T04:00:00Z,29.2533,-90.6633,1013.1,11111222 
LUMCON,ioos:station:LUMCON:101:1,2011-06-12T05:00:00Z,29.2533,-90.6633,1012.8,11111222 
LUMCON,ioos:station:LUMCON:101:1,2011-06-12T06:00:00Z,29.2533,-90.6633,1012.6,11111222 
LUMCON,ioos:station:LUMCON:101:1,2011-06-12T07:00:00Z,29.2533,-90.6633,1012.8,11111222 
LUMCON,ioos:station:LUMCON:101:1,2011-06-12T08:00:00Z,29.2533,-90.6633,1012.2,1111122 
LUMCON,ioos:station:LUMCON:101:1,2011-06-12T09:00:00Z,29.2533,-90.6633,1012.4,1111122 
LUMCON,ioos:station:LUMCON:101:1,2011-06-12T10:00:00Z,29.2533,-90.6633,1012.7,1111122 
LUMCON,ioos:station:LUMCON:101:1,2011-06-12T11:00:00Z,29.2533,-90.6633,1013.3,1111122 
LUMCON,ioos:station:LUMCON:101:1,2011-06-12T12:00:00Z,29.2533,-90.6633,1013.4,1111122 
LUMCON,ioos:station:LUMCON:101:1,2011-06-12T13:00:00Z,29.2533,-90.6633,1013.9,1111122 
LUMCON,ioos:station:LUMCON:101:1,2011-06-12T14:00:00Z,29.2533,-90.6633,1014.5,1111122 
LUMCON,ioos:station:LUMCON:101:1,2011-06-12T15:00:00Z,29.2533,-90.6633,1014.7,1111122 
LUMCON,ioos:station:LUMCON:101:1,2011-06-12T16:00:00Z,29.2533,-90.6633,1014.9,1111122 
LUMCON,ioos:station:LUMCON:101:1,2011-06-12T17:00:00Z,29.2533,-90.6633,1014.8,1111122 
LUMCON,ioos:station:LUMCON:101:1,2011-06-12T18:00:00Z,29.2533,-90.6633,1014.6,1111122 
LUMCON,ioos:station:LUMCON:101:1,2011-06-12T19:00:00Z,29.2533,-90.6633,1014.5,1111122 
LUMCON,ioos:station:LUMCON:101:1,2011-06-12T20:00:00Z,29.2533,-90.6633,1014.1,1111122 
LUMCON,ioos:station:LUMCON:101:1,2011-06-12T21:00:00Z,29.2533,-90.6633,1013.6,1111122 
LUMCON,ioos:station:LUMCON:101:1,2011-06-12T22:00:00Z,29.2533,-90.6633,1013.4,1111122 
LUMCON,ioos:station:LUMCON:101:1,2011-06-12T23:00:00Z,29.2533,-90.6633,1013.2,1111122 
LUMCON,ioos:station:LUMCON:101:1,2011-06-13T00:00:00Z,29.2533,-90.6633,1013.4,1111122 
LUMCON,ioos:station:LUMCON:101:1,2011-06-13T01:00:00Z,29.2533,-90.6633,1013.6,1111122 
LUMCON,ioos:station:LUMCON:101:1,2011-06-13T02:00:00Z,29.2533,-90.6633,1014.1,1111122 
LUMCON,ioos:station:LUMCON:101:1,2011-06-13T03:00:00Z,29.2533,-90.6633,1014.3,1111122 
LUMCON,ioos:station:LUMCON:101:1,2011-06-13T04:00:00Z,29.2533,-90.6633,1014.6,1111122 
LUMCON,ioos:station:LUMCON:101:1,2011-06-13T05:00:00Z,29.2533,-90.6633,1014.6,1111122 